When you browse on this site, cookies collect data to enhance your experience and personalize the content and advertising you see.
Visit our Privacy Policy to learn more. By continuing to use the site, you agree to this use of cookies and data.
  • în România
  • Lista ţărilor
  • Pe 7 zile
  • Temperatura apei
  • Meteo pe hartă
  • Widget-uri
  • user-avatar
    Intrare

    Meteo pe oră la Cuilapa

    Astăzi, 6 Decembrie, Vineri

    Timp Temperatura Precipitaţii Vânt Presiune Umiditate
    00:00 +19°C° 0 mm 2 m/s 687 mmHg 86%
    01:00 +19°C° 0 mm 2 m/s 687 mmHg 86%
    02:00 +19°C° 0 mm 2 m/s 687 mmHg 86%
    03:00 +19°C° 0 mm 2 m/s 686 mmHg 87%
    04:00 +18°C° 0 mm 2 m/s 687 mmHg 86%
    05:00 +18°C° 0 mm 2 m/s 687 mmHg 86%
    06:00 +18°C° 0 mm 2 m/s 687 mmHg 86%
    07:00 +20°C° 0 mm 2 m/s 688 mmHg 79%
    08:00 +23°C° 0 mm 2 m/s 689 mmHg 72%
    09:00 +25°C° 0 mm 2 m/s 689 mmHg 65%
    10:00 +27°C° 0 mm 2 m/s 689 mmHg 59%
    11:00 +28°C° 0 mm 2 m/s 689 mmHg 53%
    12:00 +30°C° 0 mm 2 m/s 689 mmHg 47%
    13:00 +29°C° 0 mm 2 m/s 688 mmHg 50%
    14:00 +29°C° 0 mm 2 m/s 688 mmHg 54%
    15:00 +28°C° 0 mm 2 m/s 687 mmHg 57%
    16:00 +26°C° 0.1 mm 1 m/s 687 mmHg 68%
    17:00 +24°C° 0.1 mm 1 m/s 687 mmHg 79%
    18:00 +19°C° 0.1 mm 0 m/s 687 mmHg 89%
    19:00 +21°C° 0 mm 1 m/s 687 mmHg 88%
    20:00 +21°C° 0 mm 1 m/s 688 mmHg 87%
    21:00 +19°C° 0 mm 2 m/s 688 mmHg 86%
    22:00 +19°C° 0 mm 2 m/s 688 mmHg 85%
    23:00 +19°C° 0 mm 2 m/s 688 mmHg 84%

    Mâine, 7 Decembrie, Sâmbătă

    Timp Temperatura Precipitaţii Vânt Presiune Umiditate
    00:00 +19°C° 0 mm 3 m/s 687 mmHg 83%
    01:00 +19°C° 0 mm 3 m/s 687 mmHg 84%
    02:00 +19°C° 0 mm 3 m/s 687 mmHg 84%
    03:00 +19°C° 0 mm 3 m/s 687 mmHg 84%
    04:00 +19°C° 0 mm 3 m/s 687 mmHg 83%
    05:00 +19°C° 0 mm 3 m/s 687 mmHg 83%
    06:00 +19°C° 0 mm 3 m/s 687 mmHg 82%
    07:00 +20°C° 0 mm 3 m/s 688 mmHg 75%
    08:00 +22°C° 0 mm 3 m/s 689 mmHg 69%
    09:00 +25°C° 0 mm 2 m/s 689 mmHg 63%
    10:00 +27°C° 0 mm 2 m/s 689 mmHg 57%
    11:00 +28°C° 0 mm 2 m/s 689 mmHg 52%
    12:00 +30°C° 0 mm 2 m/s 689 mmHg 46%
    13:00 +30°C° 0 mm 2 m/s 688 mmHg 48%
    14:00 +29°C° 0 mm 2 m/s 688 mmHg 50%
    15:00 +29°C° 0 mm 2 m/s 687 mmHg 52%
    16:00 +27°C° 0 mm 2 m/s 687 mmHg 63%
    17:00 +24°C° 0 mm 1 m/s 687 mmHg 73%
    18:00 +22°C° 0 mm 1 m/s 687 mmHg 84%
    19:00 +22°C° 0 mm 1 m/s 687 mmHg 84%
    20:00 +20°C° 0 mm 2 m/s 687 mmHg 84%
    21:00 +20°C° 0 mm 2 m/s 688 mmHg 84%
    22:00 +20°C° 0 mm 2 m/s 688 mmHg 84%
    23:00 +19°C° 0 mm 2 m/s 687 mmHg 84%

    Poimâine, 8 Decembrie, Duminică

    Timp Temperatura Precipitaţii Vânt Presiune Umiditate
    00:00 +19°C° 0 mm 2 m/s 687 mmHg 84%
    01:00 +19°C° 0 mm 3 m/s 687 mmHg 84%
    02:00 +19°C° 0 mm 3 m/s 687 mmHg 84%
    03:00 +19°C° 0 mm 3 m/s 686 mmHg 83%
    04:00 +18°C° 0 mm 3 m/s 686 mmHg 83%
    05:00 +18°C° 0 mm 3 m/s 686 mmHg 83%
    06:00 +18°C° 0 mm 3 m/s 686 mmHg 83%
    07:00 +20°C° 0 mm 2 m/s 687 mmHg 76%
    08:00 +23°C° 0 mm 2 m/s 688 mmHg 69%
    09:00 +25°C° 0 mm 2 m/s 689 mmHg 63%
    10:00 +27°C° 0 mm 2 m/s 688 mmHg 57%
    11:00 +28°C° 0 mm 2 m/s 688 mmHg 51%
    12:00 +30°C° 0 mm 2 m/s 688 mmHg 45%
    13:00 +29°C° 0 mm 2 m/s 687 mmHg 49%
    14:00 +29°C° 0 mm 2 m/s 687 mmHg 52%
    15:00 +28°C° 0 mm 2 m/s 686 mmHg 56%
    16:00 +26°C° 0 mm 2 m/s 686 mmHg 66%
    17:00 +24°C° 0 mm 1 m/s 685 mmHg 76%
    18:00 +22°C° 0 mm 1 m/s 685 mmHg 86%
    19:00 +21°C° 0 mm 1 m/s 685 mmHg 85%
    20:00 +21°C° 0 mm 1 m/s 686 mmHg 84%
    21:00 +19°C° 0 mm 2 m/s 686 mmHg 83%
    22:00 +19°C° 0 mm 2 m/s 686 mmHg 83%
    23:00 +19°C° 0 mm 2 m/s 686 mmHg 82%

    9 Decembrie, Luni

    Timp Temperatura Precipitaţii Vânt Presiune Umiditate
    00:00 +19°C° 0 mm 2 m/s 686 mmHg 82%
    01:00 +18°C° 0 mm 2 m/s 686 mmHg 83%
    02:00 +18°C° 0 mm 2 m/s 685 mmHg 83%
    03:00 +18°C° 0 mm 2 m/s 685 mmHg 83%
    04:00 +18°C° 0 mm 2 m/s 685 mmHg 83%
    05:00 +18°C° 0 mm 2 m/s 685 mmHg 82%
    06:00 +18°C° 0 mm 2 m/s 685 mmHg 82%
    07:00 +22°C° 0 mm 1 m/s 686 mmHg 74%
    08:00 +24°C° 0 mm 1 m/s 687 mmHg 66%
    09:00 +24°C° 0 mm 0 m/s 688 mmHg 58%
    10:00 +28°C° 0 mm 1 m/s 688 mmHg 55%
    11:00 +29°C° 0 mm 1 m/s 687 mmHg 51%
    12:00 +30°C° 0 mm 2 m/s 687 mmHg 47%
    13:00 +29°C° 0 mm 2 m/s 686 mmHg 51%
    14:00 +29°C° 0 mm 2 m/s 686 mmHg 55%
    15:00 +28°C° 0 mm 2 m/s 685 mmHg 59%
    16:00 +26°C° 0.1 mm 1 m/s 685 mmHg 70%
    17:00 +23°C° 0.1 mm 1 m/s 685 mmHg 81%
    18:00 +19°C° 0.1 mm 0 m/s 685 mmHg 92%
    19:00 +19°C° 0 mm 0 m/s 685 mmHg 91%
    20:00 +21°C° 0 mm 1 m/s 686 mmHg 91%
    21:00 +21°C° 0 mm 1 m/s 686 mmHg 90%
    22:00 +21°C° 0 mm 1 m/s 686 mmHg 89%
    23:00 +21°C° 0 mm 1 m/s 686 mmHg 89%

    10 Decembrie, Marţi

    Timp Temperatura Precipitaţii Vânt Presiune Umiditate
    00:00 +20°C° 0 mm 1 m/s 685 mmHg 88%
    01:00 +20°C° 0 mm 1 m/s 685 mmHg 87%
    02:00 +20°C° 0 mm 1 m/s 685 mmHg 86%
    03:00 +20°C° 0 mm 1 m/s 685 mmHg 85%
    04:00 +20°C° 0 mm 1 m/s 685 mmHg 84%
    05:00 +20°C° 0 mm 1 m/s 685 mmHg 82%
    06:00 +20°C° 0 mm 1 m/s 685 mmHg 81%
    07:00 +22°C° 0 mm 1 m/s 686 mmHg 74%
    08:00 +25°C° 0 mm 1 m/s 687 mmHg 68%
    09:00 +25°C° 0 mm 0 m/s 688 mmHg 61%
    10:00 +28°C° 0 mm 1 m/s 688 mmHg 58%
    11:00 +29°C° 0 mm 1 m/s 687 mmHg 56%
    12:00 +30°C° 0 mm 2 m/s 687 mmHg 53%
    13:00 +29°C° 0.8 mm 1 m/s 686 mmHg 60%
    14:00 +28°C° 0.8 mm 1 m/s 686 mmHg 66%
    15:00 +27°C° 0.8 mm 1 m/s 685 mmHg 72%
    16:00 +25°C° 0.5 mm 1 m/s 685 mmHg 79%
    17:00 +24°C° 0.5 mm 1 m/s 685 mmHg 87%
    18:00 +20°C° 0.5 mm 0 m/s 685 mmHg 94%
    19:00 +20°C° 0.3 mm 0 m/s 686 mmHg 93%
    20:00 +21°C° 0.3 mm 1 m/s 686 mmHg 92%
    21:00 +21°C° 0.3 mm 1 m/s 687 mmHg 92%
    22:00 +21°C° 0 mm 1 m/s 687 mmHg 91%
    23:00 +21°C° 0 mm 1 m/s 686 mmHg 91%

    11 Decembrie, Miercuri

    Timp Temperatura Precipitaţii Vânt Presiune Umiditate
    00:00 +19°C° 0 mm 2 m/s 686 mmHg 90%
    01:00 +19°C° 0 mm 2 m/s 686 mmHg 90%
    02:00 +19°C° 0 mm 2 m/s 686 mmHg 90%
    03:00 +19°C° 0 mm 2 m/s 685 mmHg 89%
    04:00 +19°C° 0 mm 2 m/s 686 mmHg 88%
    05:00 +19°C° 0 mm 2 m/s 686 mmHg 88%
    06:00 +19°C° 0 mm 2 m/s 686 mmHg 87%
    07:00 +21°C° 0 mm 2 m/s 687 mmHg 81%
    08:00 +23°C° 0 mm 2 m/s 688 mmHg 75%
    09:00 +25°C° 0 mm 2 m/s 688 mmHg 69%
    10:00 +27°C° 0 mm 2 m/s 688 mmHg 62%
    11:00 +28°C° 0 mm 2 m/s 688 mmHg 56%
    12:00 +30°C° 0 mm 2 m/s 688 mmHg 49%
    13:00 +30°C° 0 mm 2 m/s 687 mmHg 50%
    14:00 +29°C° 0 mm 2 m/s 687 mmHg 52%
    15:00 +29°C° 0 mm 2 m/s 686 mmHg 54%
    16:00 +27°C° 0.1 mm 2 m/s 686 mmHg 62%
    17:00 +25°C° 0.1 mm 2 m/s 686 mmHg 70%
    18:00 +23°C° 0.1 mm 2 m/s 686 mmHg 79%
    19:00 +21°C° 0 mm 2 m/s 686 mmHg 79%
    20:00 +21°C° 0 mm 2 m/s 687 mmHg 79%
    21:00 +20°C° 0 mm 3 m/s 687 mmHg 80%
    22:00 +20°C° 0 mm 3 m/s 687 mmHg 79%
    23:00 +20°C° 0 mm 3 m/s 687 mmHg 79%
    Arată mai mult